{"data":{"norad_id":57186,"epoch":"2026-09-21T22:18:19.278720Z","epoch_age_seconds":81856,"freshness":"FRESH","line1":"1 57186U 23091W   26264.92938980  .00005954  00000+0  20511-3 0  9994","line2":"2 57186  97.5058 332.1853 0019081 109.9886 250.3412 15.30245074179249","mean_motion":15.30245074,"eccentricity":0.0019081,"inclination_deg":97.5058,"raan_deg":332.1853,"arg_perigee_deg":109.9886,"mean_anomaly_deg":250.3412,"bstar":0.00020511,"rev_number":17924,"period_min":94.10257379466,"perigee_km":462.00386559102,"apogee_km":488.15711417592,"semimajor_km":6853.2174898835,"source":"CELESTRAK","updated_at":"2026-09-22T09:00:26.077762Z"}}